Theta_e
344 341 338 335 333 334 332 332 329 330 335 335 336 336 335 334 334 334 333 334 335 335 335 335 335 334 333 333 333 334 332 332 334 334 334 335 336 335 336 337 336 336 335 336 336 335 336 336 335 333 333 333 332 331 330 329 328 327 327 326 322 318 317 316 318 318 320 322 321 321 323 326 326 325 322 320 319 316 318 319 321 323 323 322 321
343 340 338 338 337 337 334 334 330 328 333 335 335 335 335 334 333 333 333 334 335 335 335 335 334 333 333 333 333 335 333 332 334 334 334 336 335 335 336 335 332 331 330 331 332 334 335 335 335 332 331 331 331 330 329 329 328 328 327 326 323 319 317 315 316 316 318 321 323 323 322 324 324 327 326 324 322 316 313 314 319 320 318 316 317
343 341 339 340 339 338 335 333 331 329 332 335 334 334 335 333 333 333 334 334 334 335 335 334 334 334 333 333 334 336 335 334 334 334 335 336 335 336 335 332 330 327 326 327 329 331 332 333 334 332 330 330 330 328 327 327 327 327 328 326 324 322 320 319 317 316 321 324 324 325 324 325 322 325 328 328 327 322 318 316 320 322 319 316 319
343 342 340 341 339 339 336 334 334 333 332 334 334 334 334 332 332 333 333 332 331 333 334 334 334 336 335 334 336 336 336 336 335 335 336 335 334 334 333 330 328 327 326 327 329 330 330 331 332 332 331 330 328 326 325 324 324 326 326 325 325 323 322 322 320 317 321 324 324 325 325 326 323 324 328 329 328 325 323 322 324 326 324 323 324
343 341 341 340 339 339 336 335 334 334 333 333 333 333 333 330 330 332 331 330 329 331 332 334 335 336 335 335 336 336 337 337 336 336 336 335 334 333 330 328 327 327 326 326 327 329 329 331 331 331 330 328 327 326 325 325 325 324 324 322 322 320 319 320 319 318 322 325 324 325 325 325 325 324 326 329 330 327 327 327 327 327 327 327 326
342 340 340 339 338 338 336 335 334 333 332 333 333 333 332 329 329 329 330 331 332 333 333 334 336 336 336 336 336 336 336 337 336 336 335 334 332 330 328 326 325 325 325 326 326 327 329 330 330 330 329 328 327 326 326 326 325 325 324 321 319 316 315 316 316 319 325 324 323 324 325 325 325 326 325 327 331 329 330 330 330 329 328 329 328
341 340 340 339 338 336 335 334 333 333 332 333 333 333 333 331 330 330 332 334 334 335 335 335 336 336 336 336 336 336 336 336 334 332 331 329 328 326 325 324 324 324 325 327 327 328 329 330 329 329 329 328 327 326 324 325 324 325 325 321 319 318 318 318 318 322 324 323 323 323 323 324 324 326 325 324 328 330 331 331 331 330 329 330 330
341 340 340 338 336 334 334 334 333 332 332 333 333 333 334 333 333 332 334 336 336 336 335 336 336 336 336 336 336 335 335 334 331 329 328 327 326 325 324 324 325 326 326 326 326 327 327 328 328 328 327 326 326 325 324 324 324 323 324 322 320 319 320 322 322 324 324 322 323 322 322 322 322 325 327 324 325 328 329 329 330 330 330 330 330
341 340 339 337 333 332 333 333 332 331 332 332 334 334 334 334 335 335 336 336 337 336 336 336 336 336 336 335 336 335 335 332 329 329 328 327 326 324 323 323 324 325 326 326 326 326 326 326 326 326 326 325 324 324 324 324 323 323 322 323 322 319 320 323 323 323 323 323 323 323 321 319 319 323 327 325 323 324 326 328 328 328 328 328 328
341 340 338 334 331 332 333 331 329 331 332 333 335 334 334 335 336 336 336 336 336 336 336 336 336 336 336 336 335 335 334 331 329 329 328 327 326 326 324 323 323 324 326 325 326 326 325 324 324 324 323 323 323 323 323 323 323 323 322 323 324 319 319 324 324 324 324 325 323 322 322 321 321 323 325 325 320 318 319 322 322 322 324 326 328
340 340 336 331 332 332 332 329 328 332 333 334 335 334 335 335 336 336 336 336 336 336 336 336 336 336 336 336 336 335 334 333 331 329 329 328 328 328 326 326 326 326 326 325 325 325 325 325 324 324 323 323 323 323 322 322 323 323 323 323 322 318 319 324 324 325 325 325 324 322 325 324 324 324 323 322 318 316 317 318 319 321 323 325 327
340 338 334 331 333 332 331 328 326 331 333 334 335 334 335 335 336 336 336 337 336 337 336 336 336 336 336 336 336 335 334 334 333 331 331 330 330 329 329 328 328 328 326 325 324 324 324 324 324 324 324 324 324 324 323 323 324 324 324 322 321 319 320 323 324 325 325 325 324 324 325 325 325 325 323 321 321 322 322 322 323 324 325 326 327
339 336 332 331 332 331 330 327 326 331 334 335 335 334 335 336 336 336 336 337 336 336 336 336 336 336 336 335 335 335 334 334 333 333 332 332 331 330 329 329 328 328 327 326 325 324 324 324 324 323 323 324 324 324 324 324 325 324 323 321 322 322 321 322 324 325 325 325 325 325 325 325 326 325 324 324 325 326 325 326 326 326 327 327 327
339 335 332 330 331 330 329 329 329 332 334 334 334 335 335 335 335 336 336 336 336 336 336 335 335 335 335 335 335 334 334 333 334 333 332 331 330 329 329 328 327 327 327 327 326 325 324 325 326 324 323 323 323 323 324 324 324 323 323 322 323 324 322 321 324 325 325 326 325 324 325 325 326 325 324 325 326 326 326 327 326 327 327 327 327
338 335 332 331 331 330 330 331 331 333 334 334 334 335 335 336 335 335 335 334 334 334 335 334 334 335 334 335 334 334 334 333 332 330 329 327 325 325 324 324 323 324 326 327 326 326 325 326 325 324 323 323 324 323 324 323 323 324 323 323 322 323 323 322 324 325 325 325 324 324 325 326 326 325 325 326 326 326 327 327 327 327 327 328 328
338 336 333 332 331 330 331 330 329 332 333 333 334 335 335 334 332 331 329 328 328 327 330 331 332 333 333 333 333 332 330 329 326 325 324 322 321 321 321 322 322 323 325 326 326 326 325 325 325 323 323 324 324 324 324 323 323 323 323 322 322 324 325 324 325 325 325 325 325 325 326 326 326 325 326 327 327 327 328 327 328 328 328 329 329
338 336 333 333 331 330 331 328 329 332 333 333 334 335 333 329 326 324 322 321 320 320 323 325 327 328 329 329 328 327 325 323 321 320 320 319 320 320 322 323 324 325 326 326 326 326 325 325 324 324 324 324 324 323 323 323 323 324 324 324 324 325 326 326 326 326 325 325 326 326 326 326 326 326 327 328 328 329 329 329 329 329 329 329 329
337 335 334 332 331 331 329 328 330 332 333 334 334 332 327 323 322 321 320 319 317 317 318 320 321 321 323 323 323 322 321 320 319 318 319 320 321 320 321 323 324 325 325 325 325 325 325 324 324 325 324 324 324 324 324 325 326 326 326 325 326 326 327 327 326 326 326 326 325 325 326 326 326 327 328 328 329 329 330 330 330 330 329 329 329
337 335 333 332 332 332 329 329 332 332 332 333 331 327 322 322 322 322 322 320 318 316 317 316 316 317 318 319 319 319 319 319 320 320 321 322 322 322 323 323 324 324 324 324 324 324 324 324 325 325 325 325 325 326 327 327 327 327 327 327 327 327 327 327 326 327 326 326 326 327 327 326 327 328 328 328 329 329 330 330 330 329 329 329 329
337 335 333 333 333 331 330 332 332 331 331 330 326 323 323 325 326 326 325 323 320 319 318 317 316 318 319 321 322 321 321 322 323 323 324 324 323 324 324 324 324 324 325 324 325 325 325 325 326 326 326 326 326 327 328 328 327 327 327 327 327 327 327 327 327 327 326 327 328 328 327 326 328 329 328 329 329 330 330 329 329 329 330 330 330
336 335 334 333 333 331 331 332 331 331 330 328 325 324 326 328 329 329 327 324 323 322 321 321 323 324 325 327 327 327 326 325 325 325 324 324 325 325 324 325 325 325 325 325 326 326 326 326 327 327 328 328 328 328 329 329 328 328 328 327 328 329 328 327 327 327 327 328 328 328 327 328 329 329 329 330 330 330 329 329 329 330 330 330 330
336 335 334 333 332 331 332 332 330 331 330 327 324 326 328 328 330 329 326 324 324 323 324 326 327 328 329 329 329 329 328 327 327 327 326 325 325 325 325 325 325 326 326 327 327 326 327 328 328 329 329 330 329 329 329 329 329 329 329 329 329 329 328 327 328 329 329 329 328 328 328 328 329 329 330 330 330 330 329 329 330 330 330 330 330
336 336 334 332 331 331 331 331 330 330 331 329 325 326 329 329 329 328 326 326 327 328 328 328 328 329 330 330 330 330 330 329 329 329 328 326 326 326 327 327 327 327 326 328 329 329 329 329 329 330 330 331 330 330 330 329 330 329 330 330 330 330 329 328 329 330 330 329 328 327 328 328 329 329 330 330 329 329 329 329 330 330 330 330 330
336 336 334 332 330 330 330 330 330 330 331 331 327 327 331 331 331 330 329 329 330 331 331 330 330 331 332 332 332 331 331 330 329 329 328 328 328 328 328 328 329 329 328 329 331 331 330 331 330 330 331 330 330 330 330 330 330 330 330 330 330 330 330 330 330 330 329 328 327 326 327 328 328 329 329 329 329 329 329 329 330 330 330 329 329
336 336 334 333 331 329 330 330 331 331 332 333 331 330 332 332 332 331 330 329 330 332 331 331 331 332 332 332 331 331 331 330 329 329 329 329 329 328 328 327 328 329 330 330 330 330 330 331 330 331 330 330 330 329 330 330 330 330 330 330 330 330 330 330 330 330 329 327 326 325 325 326 328 328 329 329 329 329 329 328 328 328 328 328 329
332 334 334 335 334 332 331 331 332 332 333 333 333 332 333 332 332 331 330 330 330 330 330 331 331 331 331 330 330 330 330 330 329 328 328 327 327 326 326 327 327 328 329 328 328 327 328 329 329 329 329 329 329 329 329 329 329 328 328 328 328 328 329 329 329 329 328 325 325 322 318 318 322 326 326 326 328 327 326 325 325 325 325 326 327
326 329 332 334 335 334 333 333 333 333 333 333 333 333 333 333 332 331 330 330 329 329 329 329 330 330 329 328 329 329 329 329 328 327 327 326 326 325 326 327 327 327 327 326 325 324 325 326 327 327 326 325 325 327 326 324 325 323 323 325 325 327 328 328 328 329 328 326 324 321 317 311 310 316 317 318 323 323 321 319 321 323 323 323 323
322 325 329 332 333 334 334 334 334 333 333 333 332 332 332 332 331 331 331 329 329 328 328 328 328 328 328 327 328 328 328 329 328 327 327 326 325 324 324 325 325 324 323 323 322 322 323 324 324 323 321 319 319 322 320 317 318 316 319 322 323 326 327 328 327 327 327 325 322 320 318 312 304 305 306 306 315 319 315 314 317 322 323 322 323
319 320 325 329 329 330 333 333 333 333 332 332 332 331 331 331 330 330 329 329 328 328 327 327 327 327 327 326 327 327 327 328 327 325 325 324 323 320 320 321 322 320 320 320 319 318 320 321 320 317 315 313 312 315 313 311 312 312 317 320 322 325 326 327 325 326 327 322 319 318 315 310 301 301 302 300 307 313 310 309 315 320 321 322 323
314 316 320 324 324 325 330 331 331 331 330 331 330 329 329 329 328 328 327 327 327 327 327 326 325 326 325 325 326 326 326 326 325 323 322 322 321 320 319 318 319 318 318 317 314 313 316 315 313 310 309 306 305 308 308 307 307 310 314 317 321 324 324 324 323 324 324 317 313 313 311 304 299 301 304 302 301 305 308 309 314 318 319 320 320
310 313 315 318 320 321 325 329 330 330 330 329 328 327 327 327 325 324 325 325 325 325 325 324 324 325 325 324 325 324 324 324 323 322 320 320 319 318 317 316 315 314 313 313 310 310 311 309 306 305 304 302 301 304 305 304 306 308 311 315 319 322 321 321 321 320 317 311 307 310 308 300 299 300 304 306 299 299 306 308 312 316 317 317 317
306 309 311 313 316 317 321 326 328 328 328 328 326 325 325 324 323 322 321 322 322 322 322 321 322 324 324 324 323 321 320 321 320 318 317 317 316 314 312 311 309 308 309 308 306 305 306 306 304 301 300 300 299 301 302 303 305 307 310 313 316 319 320 317 316 314 311 308 306 310 307 299 299 301 303 304 296 296 304 307 310 314 315 315 314
303 305 309 311 313 313 316 321 324 325 325 325 324 323 321 320 320 319 318 319 319 320 319 319 321 322 322 321 319 317 315 316 314 311 311 311 311 309 307 305 303 303 304 304 302 300 302 302 301 298 298 298 298 299 300 301 304 306 309 312 313 314 315 313 311 309 308 306 306 308 303 298 301 303 301 298 293 296 302 305 308 311 313 312 312
302 303 306 308 309 310 312 316 319 320 321 321 320 319 317 316 316 316 315 316 317 317 318 318 318 317 316 315 313 311 311 310 307 305 305 306 305 304 302 300 298 299 300 300 298 298 298 298 297 296 297 297 297 298 298 299 303 305 308 311 310 308 309 310 309 307 304 303 305 302 297 297 301 301 297 293 292 295 299 303 306 308 310 310 309
301 301 303 305 306 307 309 311 313 315 316 316 315 315 315 313 312 312 313 314 315 314 314 314 314 313 311 310 309 307 307 305 303 301 301 301 300 299 298 297 296 296 296 296 297 296 296 296 296 295 296 296 296 297 297 299 302 304 309 309 306 306 307 307 307 305 302 301 301 296 294 298 299 297 293 291 292 294 298 301 303 306 307 307 306
300 300 300 302 303 304 307 308 308 310 312 311 311 311 311 310 309 309 310 312 312 310 310 311 310 310 308 307 305 304 303 301 300 299 298 297 296 296 295 294 294 295 295 295 295 295 295 295 295 294 295 295 295 296 296 299 301 305 308 306 304 306 305 304 304 303 299 298 297 292 293 298 297 294 291 290 292 294 298 300 302 304 304 304 303
298 299 300 301 301 302 304 306 305 306 307 307 307 307 307 307 307 307 307 308 308 306 306 308 307 305 304 302 301 300 299 297 296 296 295 294 294 294 293 293 293 294 294 295 295 295 294 295 295 293 293 294 294 295 295 298 300 304 306 304 304 304 302 301 301 301 298 295 294 291 292 296 295 293 290 290 292 294 298 300 300 301 302 301 300
296 298 298 299 300 300 300 301 302 303 304 304 304 304 304 305 305 305 305 304 303 302 303 304 302 301 300 298 297 297 296 295 294 293 293 292 292 292 292 292 292 293 293 294 294 294 294 294 294 294 292 292 293 294 294 297 299 303 305 303 303 302 299 299 299 299 298 295 293 291 291 294 294 292 289 289 291 293 297 299 298 299 297 296 298
295 296 297 297 298 299 299 299 299 300 300 301 301 301 301 301 301 302 302 300 299 299 301 300 298 297 296 295 294 294 294 293 292 291 291 291 292 292 291 291 292 292 292 292 293 293 294 293 294 293 291 291 292 292 293 295 298 302 304 302 302 301 298 298 298 297 296 294 294 291 290 292 293 291 288 289 290 291 295 297 296 297 293 290 295
294 295 296 296 296 297 297 297 297 297 298 298 298 298 297 296 296 297 297 296 296 296 298 297 295 294 293 292 292 292 292 291 291 291 291 291 291 291 291 291 291 291 291 292 292 293 294 294 294 293 292 290 291 292 293 294 297 301 303 301 300 301 298 297 297 296 296 295 293 292 290 290 292 291 288 288 289 289 292 295 294 295 291 288 294
294 294 295 295 294 295 295 295 295 296 297 296 296 296 295 294 293 293 292 291 292 294 294 293 292 291 290 291 291 290 291 290 290 290 290 290 290 291 291 290 290 290 291 290 290 291 293 294 295 295 293 291 290 291 292 294 295 299 302 300 299 299 298 296 296 295 295 294 293 292 290 290 291 291 289 288 289 289 290 293 293 293 290 289 292
293 293 294 294 294 294 294 293 293 294 295 294 294 294 293 292 291 290 289 289 289 290 290 289 289 289 289 290 289 289 290 289 290 290 290 290 290 290 290 289 289 289 289 289 290 290 291 293 294 295 293 291 290 289 290 293 294 295 296 298 299 299 298 296 295 295 294 294 293 292 291 289 290 291 289 288 289 289 289 291 293 292 289 289 291
292 292 293 293 293 293 293 292 292 292 292 292 292 292 291 291 290 288 288 288 288 287 288 288 288 288 288 288 288 288 288 289 289 290 290 289 289 289 289 289 288 288 288 288 289 289 289 291 292 293 293 291 290 289 289 290 292 293 294 298 299 299 300 296 293 293 294 293 292 292 291 289 290 290 289 288 288 289 289 289 291 291 288 287 290
291 291 292 292 292 292 292 291 291 291 291 291 291 291 290 290 289 288 288 287 286 286 287 287 287 287 287 287 287 287 287 288 289 289 289 288 288 288 288 288 287 287 287 287 288 288 288 289 289 291 291 290 290 289 289 289 290 292 294 297 297 297 299 295 291 293 293 292 292 291 291 289 290 290 289 289 287 288 289 288 290 291 287 286 288
292 291 291 291 291 291 292 291 291 290 290 289 289 289 289 289 289 288 288 287 287 286 286 286 286 286 286 286 285 286 286 287 287 288 288 287 287 287 286 287 286 286 286 286 286 287 287 288 288 289 289 289 289 289 289 289 289 291 292 294 296 296 296 292 292 294 292 291 291 290 290 288 289 290 289 289 287 287 288 287 288 290 287 285 287
292 292 292 292 291 290 290 292 291 291 290 289 289 289 289 289 289 288 288 287 287 286 286 285 285 285 285 285 284 285 285 286 286 286 286 286 286 285 285 285 285 285 285 285 285 285 286 287 287 287 288 288 288 288 288 288 288 290 290 291 293 293 292 291 292 293 291 290 290 289 290 288 288 289 288 288 287 287 288 287 288 289 286 284 286
290 291 292 293 293 292 290 290 290 291 290 289 289 290 289 289 289 288 287 286 286 285 285 284 284 284 284 284 284 284 284 284 285 285 285 285 284 284 284 284 284 284 284 284 284 284 285 285 286 286 286 286 287 287 287 287 287 288 289 289 289 290 291 291 291 291 290 290 288 288 288 287 287 288 288 288 287 287 287 287 287 288 286 284 285
289 289 289 290 292 293 292 290 289 289 290 290 290 291 291 289 289 289 288 286 286 285 284 284 283 283 283 283 283 283 283 283 283 283 283 283 283 283 283 283 283 283 283 283 283 283 283 284 285 285 285 285 286 286 286 286 286 287 287 288 288 288 289 289 288 288 288 288 287 287 287 286 286 287 287 287 287 286 287 286 286 287 285 284 284
288 288 288 288 288 290 291 291 290 290 290 289 290 291 291 289 288 289 288 286 286 285 284 284 284 283 283 283 283 282 282 282 282 282 282 282 282 282 282 282 283 283 283 283 282 282 283 283 283 284 284 284 284 285 286 285 285 286 286 286 286 287 288 287 286 286 286 287 286 286 285 285 286 286 286 286 286 286 286 285 286 286 285 283 283
287 287 287 287 287 287 288 290 291 291 291 290 290 290 290 290 289 288 288 286 285 285 284 284 284 283 283 283 282 282 282 282 281 281 281 281 281 281 281 281 281 282 282 282 282 282 282 282 282 283 284 284 283 283 284 285 285 285 285 285 285 286 286 286 285 285 285 285 285 285 285 285 285 285 286 286 285 286 285 285 285 285 284 283 283
287 286 286 286 286 286 286 288 289 290 291 291 291 290 290 290 289 288 287 286 285 285 285 284 284 284 283 282 282 282 281 281 281 281 281 281 281 280 280 280 280 281 281 282 282 282 282 282 282 282 282 283 283 282 283 283 284 284 284 284 285 285 285 285 284 284 284 284 284 284 284 285 285 285 285 285 285 285 284 284 284 284 283 282 282
Wind_Speed
22 23 23 20 18 17 16 16 15 16 17 16 16 16 15 15 14 13 13 12 12 11 11 11 11 11 11 12 12 12 13 15 15 14 13 14 14 14 15 17 17 17 17 16 16 16 14 14 14 14 13 13 12 12 13 13 13 13 12 12 11 10 10 9 9 8 9 10 10 9 9 10 11 11 11 11 8 6 5 4 8 8 7 5 3
23 24 23 20 18 16 16 16 15 16 16 17 16 16 15 15 14 13 12 11 11 11 11 11 12 12 12 12 12 12 14 16 15 14 14 14 14 15 16 16 16 15 15 14 14 14 13 13 13 11 11 11 11 11 11 11 12 11 11 10 9 9 9 9 9 9 10 10 9 8 9 9 9 10 11 10 9 8 6 5 7 8 7 5 5
24 24 23 20 17 16 16 15 15 15 16 17 17 17 16 15 14 13 12 11 11 11 11 12 14 13 13 13 13 13 15 16 16 15 15 15 15 15 15 14 13 13 12 12 12 12 11 12 11 10 10 10 10 10 10 9 9 9 9 8 8 7 8 8 9 10 10 9 7 5 7 8 9 8 9 8 8 9 9 7 8 9 8 7 7
25 23 22 20 18 16 15 15 15 15 15 16 17 17 16 16 15 14 13 12 13 13 12 13 15 14 13 14 14 15 16 16 17 16 16 17 16 15 13 12 12 12 11 11 11 11 11 11 11 10 9 9 9 10 10 9 8 7 7 7 7 6 6 5 7 9 10 9 8 6 5 5 7 6 7 7 6 7 9 8 8 9 8 7 6
25 24 23 21 18 17 15 15 16 15 14 16 17 17 16 16 15 14 15 14 14 14 14 14 14 14 14 15 15 16 17 16 17 17 16 16 15 13 12 12 11 11 11 10 10 10 10 11 11 10 9 9 11 12 12 11 10 8 7 8 8 7 6 4 5 9 12 12 11 10 7 4 6 6 6 6 5 5 6 6 5 7 8 8 6
26 25 23 21 19 17 16 16 16 16 15 16 16 16 16 15 15 15 15 14 14 14 14 14 13 14 15 16 16 16 17 17 17 16 15 15 13 12 11 11 11 11 11 10 10 10 11 11 11 10 10 11 11 11 11 11 10 10 9 10 11 11 10 7 6 9 10 10 11 10 7 5 5 5 6 5 6 7 7 5 4 4 5 6 6
25 25 22 21 21 19 16 16 17 16 16 16 17 17 16 14 14 14 14 13 13 13 13 13 13 13 14 15 16 17 17 16 15 14 13 13 12 11 12 12 12 12 12 11 11 11 11 11 10 10 11 11 11 10 9 9 9 9 9 10 13 14 13 12 10 10 9 10 9 7 5 5 4 4 6 5 5 8 10 8 7 5 4 5 5
24 24 22 21 21 19 17 16 17 17 17 17 17 17 15 13 13 13 13 12 12 13 13 14 13 12 13 14 15 16 16 15 14 13 13 12 12 12 13 14 14 14 13 12 12 11 11 11 10 10 11 11 11 11 11 10 9 8 7 8 13 15 12 12 12 10 9 10 8 5 3 2 4 4 5 5 4 5 8 6 5 6 5 6 5
23 23 22 22 22 20 18 17 17 18 19 18 17 16 14 13 13 13 12 12 12 12 13 14 13 12 12 13 15 16 15 13 13 13 12 12 12 13 13 14 14 13 13 12 12 12 11 11 10 10 10 10 10 10 10 9 9 8 7 7 12 14 10 10 12 11 10 9 6 5 5 3 5 5 4 6 6 4 6 5 4 5 5 6 6
22 21 22 23 22 20 19 19 19 19 19 18 16 14 13 13 13 12 12 12 12 12 13 14 14 13 12 14 15 15 13 12 11 11 11 11 11 11 11 12 12 12 12 12 12 11 11 11 10 10 10 10 10 9 9 8 8 8 8 8 10 12 9 8 10 10 9 7 5 5 6 6 6 4 6 8 9 7 8 7 7 7 7 7 7
22 20 21 23 21 20 20 20 21 21 19 18 14 13 13 12 12 12 12 13 13 14 14 14 14 14 14 15 15 14 13 11 10 10 9 9 9 9 9 10 10 10 11 11 11 11 11 10 10 10 10 9 9 9 8 8 7 7 7 7 10 10 9 9 10 10 7 6 6 6 7 7 5 6 7 9 9 8 8 8 8 8 8 8 9
22 20 22 23 21 20 20 20 23 22 20 18 14 13 13 12 12 12 13 13 14 15 15 15 15 16 16 15 14 13 12 11 10 9 9 9 9 8 8 9 9 8 8 10 10 10 10 10 9 9 9 8 7 8 7 7 7 5 6 8 10 10 9 9 10 10 7 6 7 6 7 6 5 7 10 11 10 9 8 8 9 9 9 9 9
22 21 23 22 20 19 19 20 23 22 20 17 15 14 13 13 13 13 13 14 14 15 15 15 16 15 15 14 12 12 11 10 10 9 8 8 8 7 8 7 7 7 6 8 8 8 9 8 8 8 7 7 7 7 6 6 6 6 7 9 10 9 8 7 7 9 7 7 7 7 7 6 4 8 12 12 11 11 10 10 10 10 10 10 10
24 23 24 22 20 18 18 20 22 21 19 17 16 15 14 14 14 14 14 14 15 14 14 14 14 13 13 13 11 11 10 10 10 9 8 7 7 7 6 6 5 5 6 6 6 6 6 6 6 5 6 6 6 6 6 6 6 7 8 8 8 9 9 7 7 9 7 6 6 6 7 5 6 9 12 12 10 10 10 10 10 10 10 11 11
25 25 24 22 20 18 18 20 21 19 17 17 16 15 15 16 15 15 15 15 14 14 14 13 13 12 12 12 10 10 10 10 9 8 8 6 6 5 4 4 4 4 5 5 4 4 4 5 5 4 6 7 6 6 6 6 6 7 8 9 9 9 10 8 9 10 7 7 7 7 8 5 7 11 13 12 10 10 10 10 10 10 11 11 11
25 25 24 23 21 19 19 19 19 17 15 16 16 16 16 16 16 15 14 14 13 12 13 12 13 12 12 12 11 11 10 9 8 7 6 5 4 4 4 4 5 5 6 6 5 5 5 6 6 7 7 7 7 7 7 7 7 8 9 9 9 9 10 9 9 10 7 9 8 7 7 4 8 11 12 11 10 10 10 10 11 11 11 11 11
25 24 24 23 20 19 19 19 18 15 15 16 17 17 17 16 15 14 13 12 12 11 12 12 12 11 12 11 11 10 9 8 7 6 6 5 5 5 6 6 6 7 7 7 7 7 6 7 8 9 8 7 8 9 9 9 9 10 10 9 9 8 9 10 10 9 8 9 8 7 6 6 11 12 11 11 10 9 9 10 11 11 11 12 12
23 23 23 22 20 18 19 19 17 15 16 17 17 17 16 15 14 13 12 11 11 11 11 11 10 11 11 10 9 9 8 7 7 7 7 7 8 8 9 9 8 8 9 9 9 8 8 8 7 8 8 9 9 9 9 10 12 12 11 9 9 9 9 11 10 9 9 9 8 5 5 9 13 11 11 11 10 10 9 10 10 10 11 12 12
23 22 22 21 21 19 20 20 17 17 17 17 17 16 15 14 13 12 11 11 11 10 11 10 10 10 10 10 10 9 9 10 10 10 10 11 11 11 11 10 10 10 9 9 8 7 7 6 6 5 7 7 6 8 9 10 12 13 12 10 10 10 10 11 11 11 9 8 7 4 7 13 14 11 11 10 10 10 9 10 10 10 10 11 11
22 22 21 20 20 20 21 19 17 17 16 15 16 15 14 13 12 11 11 11 11 11 11 12 13 14 14 14 13 13 13 14 14 12 12 12 12 11 11 9 8 8 7 6 5 5 5 4 5 5 5 5 5 7 9 10 11 12 11 11 10 10 11 10 9 9 8 7 6 6 11 15 13 11 10 10 10 9 10 10 10 10 10 11 11
21 21 21 20 20 21 22 19 17 16 14 15 15 15 14 12 11 10 10 11 11 12 13 15 17 17 16 15 14 13 13 14 13 11 11 10 10 9 9 7 6 5 4 4 4 4 4 6 6 7 7 7 7 7 9 9 10 11 11 11 10 9 10 8 7 8 7 7 7 9 13 13 12 10 10 10 10 10 10 10 9 10 10 11 11
20 18 19 20 19 20 21 19 18 16 14 14 16 16 14 12 11 10 11 12 12 13 16 16 15 14 13 11 10 9 10 11 10 8 8 8 7 6 5 4 3 3 3 4 4 5 5 7 7 8 8 8 9 9 9 9 9 10 10 10 10 10 9 7 7 8 7 6 8 11 13 11 11 11 10 10 10 11 10 10 11 10 10 10 11
17 17 19 19 18 19 19 19 19 17 15 13 15 16 14 12 11 11 12 13 13 13 14 13 12 11 9 6 6 9 11 10 8 7 5 5 5 2 3 2 2 1 2 4 5 6 6 7 8 8 9 9 10 9 9 9 9 9 10 10 10 10 9 8 8 7 6 6 10 14 13 12 12 11 11 11 11 12 11 11 11 10 10 11 12
13 14 18 19 18 18 18 18 19 18 16 14 15 16 14 14 13 13 14 13 13 13 13 12 11 9 7 6 7 9 9 7 6 5 4 4 5 5 4 5 6 2 2 5 6 7 8 8 8 8 9 9 9 9 8 8 9 9 10 10 9 9 8 8 8 7 7 10 13 14 12 13 13 13 13 13 13 12 12 13 13 12 11 13 13
12 11 14 18 17 17 18 18 19 18 18 17 17 17 16 16 18 17 16 14 12 13 12 11 10 7 8 8 8 8 7 7 6 5 7 9 9 8 5 6 8 5 4 6 7 9 9 7 6 6 7 7 8 10 10 10 11 10 11 9 9 10 8 9 9 8 10 14 15 14 14 15 13 14 15 16 16 15 17 18 19 17 15 15 15
13 13 13 16 15 16 18 19 18 18 18 19 19 18 16 17 18 16 16 14 12 11 11 10 9 8 10 12 11 9 7 8 8 8 9 9 8 7 4 5 5 5 4 5 8 9 9 7 7 8 8 9 9 9 10 11 10 10 10 9 10 11 10 11 10 9 12 15 16 17 19 19 17 17 16 16 16 17 20 20 20 19 18 17 17
13 14 13 15 14 13 16 18 18 17 18 19 19 18 16 16 17 15 14 12 11 11 10 9 8 9 11 12 10 7 6 8 9 8 8 7 6 4 3 3 3 5 6 7 9 9 8 9 11 12 11 11 9 8 11 10 9 10 8 8 10 10 9 11 11 10 12 14 15 15 18 22 21 19 19 19 18 19 21 21 21 20 20 19 19
12 13 13 15 12 10 12 15 17 17 16 17 17 17 15 15 15 14 12 11 10 10 10 9 8 9 10 11 10 9 9 8 8 8 8 8 7 6 7 6 7 9 10 10 10 8 7 9 10 10 10 9 7 7 10 9 9 9 6 8 12 11 9 10 12 11 11 14 16 15 16 20 22 21 21 22 22 22 22 22 22 21 21 21 21
11 11 12 14 12 12 13 14 15 17 16 16 17 16 15 15 14 13 13 12 11 10 10 10 10 11 11 12 11 11 11 9 9 10 10 9 9 10 10 10 10 11 11 11 10 9 8 9 9 8 8 8 7 6 9 10 9 9 8 10 12 12 10 9 12 13 11 15 18 16 17 17 20 21 22 23 23 24 24 23 23 22 21 21 20
11 10 11 13 12 13 16 17 16 17 17 17 17 16 16 16 14 14 14 13 13 13 13 13 13 13 12 13 13 13 13 11 11 11 10 9 9 10 11 11 10 10 11 11 10 9 9 11 11 10 9 9 8 8 10 10 9 10 11 12 12 12 12 9 12 15 14 18 19 16 17 17 18 20 21 22 23 24 26 25 24 23 21 22 22
10 9 10 12 13 13 16 18 17 17 16 17 18 19 19 18 17 17 17 16 16 16 16 16 17 15 14 14 14 15 13 12 10 9 10 10 10 10 10 10 10 10 11 11 10 9 10 12 12 10 9 9 8 9 10 10 9 11 12 13 12 12 12 12 14 16 16 18 18 16 16 16 17 20 21 21 21 23 26 26 25 24 22 22 23
11 10 9 11 14 15 16 18 19 19 18 18 20 21 20 20 20 19 18 17 17 17 17 17 17 16 15 14 14 14 13 12 11 11 11 11 11 11 11 11 11 11 11 11 10 10 10 11 10 8 8 8 9 9 10 9 10 12 13 13 12 10 10 13 15 15 14 16 15 14 17 17 17 20 21 20 20 23 25 26 25 24 22 22 23
11 9 9 11 14 16 17 19 21 22 21 21 22 22 21 20 20 19 19 18 18 18 17 17 16 16 15 14 14 15 15 14 14 13 13 13 12 12 12 12 12 11 11 10 10 11 10 10 10 9 9 9 10 10 10 10 11 12 13 14 13 10 10 15 16 15 14 14 13 14 17 17 17 20 20 19 20 22 25 25 24 23 21 22 23
10 10 10 11 14 16 18 19 21 23 23 23 22 22 21 21 20 20 19 19 19 19 18 18 16 16 16 16 16 17 17 16 15 15 14 13 13 13 13 13 12 11 10 11 11 11 12 12 11 11 11 12 12 11 11 10 11 12 13 14 13 10 12 15 15 15 16 15 14 16 18 17 18 19 20 20 20 21 23 24 24 23 20 21 23
10 11 12 11 13 16 19 20 20 21 22 22 21 21 21 21 21 21 20 20 20 20 20 19 18 17 17 18 17 17 17 16 15 15 15 14 14 14 14 13 12 11 11 11 11 12 13 13 13 14 13 14 14 13 12 11 12 13 14 15 12 10 13 14 13 14 16 15 16 19 19 18 19 20 21 20 21 21 21 23 23 22 20 20 22
10 11 12 12 14 16 18 21 20 20 22 21 21 21 21 21 22 22 21 22 22 22 21 20 19 19 18 18 18 17 17 16 15 15 15 15 15 15 14 13 12 12 12 12 12 13 14 15 15 17 16 16 15 14 13 12 12 14 14 14 10 10 13 14 13 13 13 14 17 22 19 18 19 20 21 21 22 21 20 22 22 21 21 20 21
10 11 12 13 16 16 17 19 20 20 21 21 21 21 20 20 21 22 23 24 23 23 22 21 21 20 19 19 18 18 17 16 15 15 16 16 16 16 15 14 13 13 13 12 13 14 15 16 16 18 19 18 17 15 14 12 12 13 14 12 9 10 13 14 13 11 13 14 16 22 20 17 17 20 22 23 22 22 21 22 22 21 19 20 22
9 11 13 14 16 17 17 18 19 20 21 21 21 20 20 21 21 22 23 24 24 24 23 22 21 20 20 19 18 18 18 17 16 16 16 17 17 16 16 15 14 14 14 14 14 15 16 17 17 17 19 20 18 17 14 12 11 11 12 11 8 12 14 13 12 10 13 14 15 21 22 17 15 19 23 23 22 22 21 21 20 17 17 19 20
9 11 14 15 16 17 17 18 18 19 21 22 22 22 22 21 22 22 23 24 24 24 24 22 21 21 20 19 19 18 18 18 17 17 17 17 17 17 17 16 16 16 16 16 16 15 16 18 18 17 19 21 20 18 14 11 10 9 11 11 9 12 14 13 12 10 12 14 14 20 23 19 15 19 25 24 22 22 20 20 19 15 17 19 17
9 12 14 15 17 17 18 19 19 20 21 22 23 24 24 23 23 23 23 23 24 24 24 23 22 21 20 19 19 19 19 19 19 18 18 18 17 17 18 17 17 16 17 18 18 17 16 16 17 17 18 19 20 18 14 11 10 10 12 13 9 10 14 15 15 13 12 13 15 19 23 22 16 18 25 24 22 23 20 19 18 15 19 20 16
9 11 14 15 16 17 18 19 19 20 22 23 23 25 25 23 22 23 23 23 24 24 24 23 23 22 21 20 19 19 19 19 20 19 19 18 17 17 18 18 18 17 18 19 19 18 17 15 15 16 18 20 22 22 17 12 11 10 10 12 11 11 13 16 17 14 12 13 15 17 22 23 18 18 24 24 22 23 20 18 17 16 19 21 17
8 11 13 14 15 16 17 17 18 19 21 22 22 23 23 22 22 22 23 24 24 25 26 25 23 23 22 21 20 19 19 19 19 19 19 18 17 17 18 18 18 18 18 18 18 18 18 17 16 16 17 19 22 25 23 16 12 8 4 4 7 8 7 13 18 15 12 13 15 16 20 23 19 16 21 23 22 20 20 19 15 16 20 21 19
9 11 12 14 15 16 16 16 17 17 19 20 21 21 22 23 22 23 25 26 25 25 26 25 24 23 23 22 21 19 19 20 19 18 18 18 17 17 18 18 18 18 18 18 18 19 20 20 19 17 16 17 18 23 26 23 18 9 3 2 2 1 1 8 14 14 13 13 15 15 18 23 19 15 19 22 24 19 18 19 15 15 20 22 19
10 11 12 13 14 16 17 17 17 17 18 20 21 22 24 26 25 25 26 27 25 26 27 26 24 24 23 22 20 19 19 19 19 18 18 18 17 18 17 17 17 17 18 19 19 20 20 20 20 18 17 18 17 19 22 24 25 16 5 2 3 4 2 8 15 8 10 13 15 15 17 22 18 15 19 20 23 20 17 19 16 14 20 22 18
10 11 12 14 14 15 16 16 18 19 20 21 23 25 26 27 26 25 25 24 24 24 26 25 23 23 23 22 20 19 19 19 18 18 17 17 18 18 17 17 17 17 18 19 20 20 20 20 20 19 18 18 16 17 18 20 24 22 14 5 3 4 1 9 13 6 7 11 13 15 16 21 18 15 18 17 21 21 16 18 16 12 18 21 17
10 11 12 13 14 15 16 16 17 19 20 21 23 23 22 22 21 20 19 20 22 22 22 23 22 22 21 21 19 18 19 19 18 18 17 17 17 18 18 18 18 18 19 20 20 20 20 19 20 19 18 17 16 18 19 17 18 21 19 13 8 5 2 8 6 3 8 5 8 14 14 20 19 14 17 16 19 21 15 17 17 11 16 21 18
9 11 13 15 16 16 17 19 20 21 21 20 22 21 18 18 20 21 20 20 21 20 20 21 22 21 20 20 19 18 18 18 18 18 17 17 17 18 18 18 19 19 19 20 21 20 19 18 18 18 18 17 17 19 19 16 16 17 17 14 11 9 5 7 4 3 6 3 9 15 13 19 18 14 18 16 19 21 15 18 16 10 15 22 18
8 9 11 14 18 20 22 22 22 24 23 21 22 22 19 20 22 24 24 23 22 21 21 22 22 21 21 20 19 18 18 18 18 17 17 17 17 18 18 18 18 19 20 20 20 19 19 18 17 18 18 19 18 17 17 17 16 16 15 14 12 10 9 10 9 8 4 4 11 15 16 21 17 15 17 16 19 20 16 18 16 10 16 22 18
8 9 10 13 17 21 25 26 24 23 22 20 22 23 23 22 23 25 26 26 25 22 21 22 20 20 20 20 19 18 17 17 17 16 16 17 17 17 18 18 18 18 18 19 18 18 18 18 18 18 19 19 17 15 16 16 15 15 15 15 14 12 11 11 12 12 7 4 5 8 17 23 18 19 19 16 19 17 15 18 14 10 17 21 17
9 11 13 16 18 19 22 26 26 24 22 20 21 22 22 22 22 24 26 26 25 23 21 20 19 18 18 19 17 16 15 15 15 15 15 15 16 16 17 18 18 17 17 18 18 17 16 17 17 17 17 17 16 14 15 15 13 14 15 14 14 14 12 10 12 14 10 7 5 7 16 18 16 20 21 19 20 16 16 18 11 12 19 19 15
10 13 15 16 18 19 21 24 25 26 25 23 22 22 22 22 21 23 25 24 23 21 20 19 18 18 18 17 16 15 14 13 14 14 13 13 15 16 17 17 17 17 17 17 18 17 15 15 15 15 15 16 15 14 14 14 13 13 13 12 12 12 11 10 12 14 12 9 8 8 14 16 15 18 20 21 18 15 18 15 10 14 18 15 16
Wind_Direction
142 146 146 147 148 146 141 137 137 141 141 139 139 136 134 132 131 129 126 126 124 123 121 122 122 122 118 109 110 112 108 110 113 114 114 106 99 94 90 88 85 81 79 79 76 75 76 74 71 66 65 65 62 57 54 53 52 53 55 57 56 57 59 60 59 60 72 71 64 60 66 66 61 57 56 58 59 80 99 73 53 51 52 53 73
143 146 145 146 145 143 141 136 134 140 143 142 141 138 136 134 134 132 129 127 125 123 121 120 121 122 120 120 126 121 111 112 115 114 112 106 103 99 94 88 83 77 73 75 75 76 77 73 71 67 66 66 63 59 56 51 48 47 47 52 54 55 53 55 55 62 77 82 77 71 74 63 60 65 55 54 50 61 78 68 60 45 40 45 55
141 146 146 144 143 143 141 135 131 136 143 143 143 141 138 136 134 131 129 128 128 125 121 119 119 119 125 132 128 119 116 117 118 117 113 108 105 100 94 87 82 79 73 73 75 78 78 76 75 67 66 67 65 60 58 54 52 49 43 49 53 54 53 50 48 65 82 81 73 69 96 61 45 70 57 53 42 45 70 72 62 48 46 52 52
139 145 145 144 142 142 139 134 131 132 139 142 143 143 140 138 133 132 133 131 130 127 124 121 120 121 126 129 122 118 119 119 118 116 112 106 102 97 93 89 84 82 78 75 74 75 74 77 78 72 71 67 64 58 54 54 56 56 42 36 39 37 39 39 39 69 78 65 57 44 100 64 27 58 46 45 41 39 67 71 59 48 40 43 40
139 143 144 143 141 141 139 134 131 132 135 139 143 143 142 141 137 137 139 134 132 129 126 127 127 127 125 123 121 119 117 114 112 109 105 100 98 96 96 91 84 78 73 72 72 73 74 78 80 78 73 66 65 61 59 58 57 54 37 27 28 19 12 5 27 77 74 60 64 54 71 55 18 39 31 34 36 29 48 55 49 32 22 21 14
138 141 141 141 141 139 138 134 132 133 133 136 140 140 140 142 140 141 141 138 137 134 129 131 131 127 125 123 122 119 115 111 108 107 105 102 101 98 93 83 75 70 67 68 68 73 76 79 81 77 73 71 69 66 62 59 57 52 41 36 35 32 34 38 56 83 70 55 55 52 64 46 22 21 16 24 23 22 22 21 21 8 6 3 357
136 138 139 140 140 138 137 135 134 134 134 134 133 136 140 142 141 144 143 140 140 139 137 134 131 127 125 124 122 118 115 112 110 110 107 105 102 94 85 77 72 69 70 72 72 76 81 84 82 76 75 72 67 61 57 58 60 57 50 41 37 40 51 62 75 81 63 51 41 38 65 51 46 16 353 1 7 18 16 12 17 11 1 354 343
135 138 138 142 141 141 139 135 135 136 136 132 132 139 146 144 140 144 142 139 138 140 142 138 134 131 128 126 123 119 115 115 113 109 105 99 94 88 83 78 73 71 71 71 71 75 80 85 84 76 72 70 63 59 57 58 58 57 51 39 38 41 56 68 70 72 58 50 36 23 28 43 76 37 353 352 346 360 2 358 12 11 356 354 350
135 137 140 143 143 143 141 137 135 136 136 132 138 145 146 142 139 141 140 140 139 140 142 141 141 136 134 133 127 120 117 116 110 103 99 93 88 85 83 77 71 70 71 70 70 71 71 74 78 74 69 66 62 60 57 53 51 49 47 41 30 31 53 66 59 59 53 47 34 17 360 20 71 33 351 342 327 316 321 311 320 336 330 337 347
134 137 142 144 145 144 142 140 134 134 135 135 144 147 143 139 136 138 139 140 139 138 139 141 142 138 138 134 127 122 118 114 109 103 98 92 84 80 76 69 65 69 71 71 72 71 67 67 67 67 64 60 59 58 54 48 43 38 44 45 18 20 51 60 59 58 48 45 30 17 8 28 46 348 317 316 314 306 295 294 302 309 312 320 328
134 136 142 144 146 145 144 140 135 136 135 139 149 147 143 138 135 136 134 135 134 133 134 137 137 135 132 128 126 123 118 114 109 105 99 91 82 77 72 69 68 70 72 73 76 74 69 67 62 62 61 57 57 53 47 45 41 40 41 33 7 15 49 53 63 68 44 28 19 17 9 16 12 317 308 312 318 318 306 306 311 313 314 317 321
133 136 143 145 147 147 146 142 139 137 136 145 153 145 140 136 134 133 130 130 129 129 131 133 133 133 130 128 129 126 125 123 116 110 104 96 90 87 85 84 77 70 72 77 81 77 67 65 61 57 55 51 53 50 46 43 42 44 27 14 4 13 47 53 58 63 38 9 13 18 7 3 345 318 325 333 339 339 335 332 329 328 325 323 323
132 139 144 146 148 149 146 142 140 138 143 153 150 140 136 133 132 129 126 125 125 127 130 131 134 135 134 134 132 131 135 133 126 117 107 104 101 94 91 88 78 74 83 85 84 77 64 58 57 53 47 42 42 42 42 42 36 24 14 10 9 15 36 55 55 45 30 12 13 13 8 6 337 320 333 346 350 345 343 342 337 334 330 329 326
135 141 144 146 148 148 143 140 141 143 152 153 143 139 134 130 127 124 121 119 120 123 127 131 135 134 135 137 134 133 135 132 128 121 115 114 110 100 92 86 78 82 91 92 85 77 65 49 52 55 43 37 36 36 37 36 26 17 18 14 14 19 22 51 70 51 40 13 7 12 10 359 329 326 339 350 350 346 344 340 337 333 329 327 324
137 140 142 147 146 145 143 142 145 148 152 148 141 138 133 128 125 124 122 121 121 122 124 126 129 128 130 133 131 130 129 130 129 127 126 122 115 104 95 88 82 85 86 89 80 70 60 42 37 42 41 40 39 37 36 30 29 24 18 14 19 28 27 52 75 65 43 355 5 21 10 352 330 335 345 350 348 346 342 338 335 331 328 325 323
137 140 141 145 147 147 147 147 148 147 146 143 139 135 133 131 129 130 129 129 129 130 130 128 127 127 130 132 132 133 132 131 127 123 117 105 95 84 81 76 72 74 70 66 63 55 45 41 37 43 47 43 38 36 35 30 32 24 15 17 26 36 41 56 67 63 31 358 24 30 7 348 336 342 350 352 349 346 342 340 337 332 330 326 322
136 140 140 143 146 149 150 150 148 144 142 139 137 137 137 136 136 135 134 135 135 138 138 136 134 134 137 136 135 136 133 126 120 110 95 87 83 79 82 79 74 70 67 63 62 60 54 56 55 55 53 49 49 46 42 37 37 28 24 30 37 47 51 54 54 52 34 17 31 16 349 334 338 348 353 352 349 347 343 340 339 336 333 329 325
135 138 141 142 143 148 153 148 145 144 140 139 139 140 141 140 138 134 131 129 131 137 139 138 138 141 144 141 138 136 132 128 121 111 103 99 91 88 91 88 84 76 73 71 67 67 66 68 65 62 61 60 58 50 47 44 41 35 35 43 44 47 51 50 41 36 36 24 20 359 335 332 339 351 350 349 347 346 344 342 345 345 342 337 332
136 140 140 141 142 147 150 144 143 145 141 140 141 143 144 138 133 128 126 123 123 127 128 128 128 132 134 131 128 124 120 117 112 110 105 99 95 95 96 93 90 87 84 81 78 77 75 72 59 56 59 58 54 45 44 41 36 31 34 40 40 42 45 41 30 25 28 20 21 14 349 337 338 349 347 347 347 346 345 346 350 348 349 348 345
138 140 139 142 145 147 144 139 141 142 140 141 143 147 142 133 127 120 119 119 117 119 120 118 116 114 112 107 103 104 107 108 106 103 100 96 97 97 98 98 94 96 91 82 78 75 69 55 36 32 35 38 47 44 40 36 32 30 33 37 37 43 40 34 30 25 23 22 17 353 338 331 338 352 351 351 351 349 349 353 354 349 355 357 355
141 142 143 144 147 148 143 142 143 140 144 146 147 147 139 131 122 109 108 115 115 115 115 111 109 107 105 101 95 96 96 101 99 93 99 101 101 101 102 103 101 100 87 66 52 51 38 24 24 30 33 38 47 47 37 31 29 31 38 39 34 39 35 30 35 31 28 14 352 339 330 330 349 2 359 359 358 357 357 359 357 357 3 1 0
146 146 143 145 149 148 147 150 146 146 151 151 153 149 141 137 125 113 113 118 115 111 112 111 111 111 110 101 94 102 104 109 108 103 113 114 111 111 106 103 103 95 62 43 33 33 26 24 35 38 41 43 43 43 33 24 26 29 35 36 30 36 39 36 40 40 35 8 355 349 342 353 12 14 13 12 10 10 10 11 11 11 10 6 10
150 147 143 145 148 149 153 156 153 154 154 156 161 151 145 146 130 117 122 127 125 124 127 128 133 133 129 117 116 134 136 138 137 133 137 131 129 108 78 47 6 12 20 35 45 40 30 35 45 43 41 36 35 39 30 21 25 27 31 34 30 35 45 48 47 46 39 26 16 2 3 25 31 28 26 22 25 24 20 19 19 19 15 16 21
153 153 148 146 148 152 155 158 159 159 158 163 164 154 155 157 143 132 138 148 147 146 147 146 149 149 144 135 134 141 144 146 147 156 141 99 87 51 35 20 14 42 47 37 52 44 40 46 46 43 37 35 38 37 31 29 31 32 30 34 38 33 42 47 47 60 54 41 25 10 28 48 40 39 38 34 38 36 32 31 30 28 25 27 30
143 144 144 142 147 154 154 158 160 159 161 161 159 162 165 157 153 151 154 162 161 158 156 150 145 139 130 115 112 121 128 127 119 125 101 73 69 58 44 41 43 79 83 51 58 48 41 43 45 48 43 43 43 34 33 33 32 32 26 32 45 36 43 55 57 76 66 48 38 35 54 64 53 48 45 44 47 45 44 42 40 39 37 38 39
112 115 128 131 136 144 150 158 160 161 161 159 160 166 165 156 157 160 161 163 164 167 164 155 145 130 120 107 109 116 122 129 114 104 101 93 95 86 70 65 54 79 90 71 72 56 38 29 39 52 54 43 37 40 38 30 27 27 24 38 49 37 44 57 60 76 70 56 52 53 60 62 61 55 49 50 49 46 45 43 43 41 40 42 40
86 100 120 129 132 135 147 157 159 161 160 162 164 162 162 161 164 166 167 167 165 168 165 160 152 138 126 115 122 127 121 134 130 119 118 118 115 106 86 73 61 75 80 77 74 64 52 49 47 46 47 33 24 46 41 29 30 25 26 46 50 46 50 60 61 69 70 61 55 53 53 50 51 55 53 53 50 44 42 42 43 40 39 41 40
83 91 112 130 129 122 143 156 156 158 157 162 163 158 159 161 165 168 169 170 168 168 164 162 156 150 142 128 129 131 125 132 134 127 124 118 105 96 89 85 91 89 86 85 78 70 72 76 65 46 41 29 19 45 42 34 30 20 34 51 51 56 57 66 68 70 72 61 56 51 47 42 43 50 51 51 48 41 38 40 41 38 38 38 38
81 84 105 123 118 112 135 150 154 155 152 156 159 156 157 157 162 165 164 165 167 167 163 162 158 159 151 135 132 131 131 135 129 122 120 115 107 101 94 91 93 90 87 86 76 68 73 78 71 56 48 37 27 47 50 39 28 25 48 55 55 59 58 74 75 73 78 66 61 56 49 42 39 43 45 46 47 42 37 39 41 38 38 39 38
71 83 100 117 116 116 134 144 150 154 153 153 152 152 154 153 155 157 157 159 158 155 154 152 152 155 145 132 133 131 130 133 128 124 123 121 119 113 103 97 92 89 86 80 71 65 72 70 59 54 53 41 36 59 58 41 35 40 52 55 57 61 64 84 78 68 77 68 58 57 53 45 42 42 37 36 42 43 38 38 41 40 41 41 38
65 83 93 111 120 119 133 144 148 154 160 157 149 147 149 149 147 147 146 148 149 146 145 143 143 144 137 131 133 130 129 133 133 132 130 126 124 116 106 100 93 89 85 81 76 69 77 74 58 50 50 45 47 65 61 46 48 52 56 57 56 61 68 87 77 62 76 74 59 57 51 44 49 44 32 27 35 44 40 37 41 42 42 41 38
58 71 89 110 120 119 128 142 149 152 158 158 152 148 146 146 145 142 140 143 145 143 139 136 136 136 136 139 138 132 131 134 133 128 124 121 119 112 103 97 89 87 88 89 87 80 83 83 74 64 59 58 59 67 64 56 59 62 64 60 54 56 70 83 71 58 73 75 62 56 43 41 57 50 34 26 36 49 43 36 43 45 42 41 39
55 65 94 111 118 118 123 138 148 151 153 154 153 150 147 146 146 144 142 145 144 142 137 133 135 138 139 144 140 130 128 128 124 118 116 117 116 111 104 94 86 88 95 98 94 87 84 84 83 73 66 63 62 67 66 64 67 68 69 62 56 58 78 82 66 59 67 63 56 48 36 43 60 52 36 31 41 53 46 36 40 44 42 40 39
63 70 89 106 116 119 123 133 143 148 150 152 153 152 150 148 148 148 146 148 145 141 138 134 135 136 136 137 132 125 124 123 119 114 114 115 114 110 104 95 90 91 97 101 95 87 79 75 72 64 62 57 54 56 56 66 69 71 74 64 58 64 82 80 62 62 66 61 55 42 40 51 57 46 33 36 48 55 50 39 37 41 41 40 38
74 74 82 99 112 118 122 127 135 143 146 148 149 151 152 151 149 148 148 147 143 138 134 131 132 132 130 127 124 121 121 120 118 116 114 114 112 108 101 96 96 94 96 96 90 85 76 70 66 58 55 53 53 51 51 64 69 75 76 60 57 72 83 78 62 63 65 64 55 41 48 58 52 41 31 40 52 54 55 46 38 38 38 38 36
80 82 87 100 108 113 123 127 129 135 140 143 145 147 149 149 147 145 144 142 138 132 129 129 130 130 126 123 120 118 117 116 116 116 113 110 107 103 100 98 98 94 93 91 87 83 74 68 62 53 48 48 49 49 54 65 73 81 74 57 66 85 85 81 68 64 62 62 53 43 51 60 51 37 32 44 51 51 59 57 46 38 37 37 32
83 95 99 106 110 110 120 128 129 132 135 138 141 143 144 145 145 143 139 136 132 127 126 129 129 125 123 119 117 117 115 112 112 113 109 104 102 100 98 95 92 91 89 86 84 80 73 67 61 52 44 43 45 45 51 63 75 84 72 63 84 91 84 82 74 66 60 56 49 44 50 60 50 33 35 48 50 49 59 61 52 43 36 33 29
82 102 105 108 115 115 117 122 128 133 136 137 137 137 139 139 139 138 135 131 127 125 126 127 124 122 120 116 115 115 114 112 108 107 105 101 99 97 93 90 87 86 83 82 81 78 76 68 60 53 44 41 42 40 42 55 74 84 76 78 97 88 80 82 78 68 59 52 42 41 47 58 47 31 37 47 48 49 55 54 47 41 31 27 28
76 101 108 108 114 118 120 122 127 132 135 137 136 133 132 130 129 131 129 124 122 122 125 124 119 119 117 114 114 113 112 110 105 103 102 99 99 95 90 87 84 83 80 78 76 74 76 69 60 53 47 44 41 38 38 48 72 91 88 94 107 88 77 76 73 61 55 48 34 33 40 52 45 28 35 44 47 47 51 48 38 28 22 25 27
80 97 106 107 109 115 120 121 125 130 132 133 133 131 126 121 120 120 119 116 117 119 120 120 116 114 114 113 111 110 110 108 104 102 99 98 97 94 90 85 81 79 77 73 69 67 68 68 61 48 45 47 43 40 40 47 76 103 102 104 112 93 79 74 66 54 48 42 31 27 32 43 42 25 29 37 44 42 44 46 34 14 14 27 34
92 97 103 102 104 112 116 117 121 129 133 130 129 128 124 121 117 115 112 110 114 116 115 114 112 110 111 112 107 106 108 106 104 102 98 96 94 93 91 85 80 76 75 71 68 67 66 70 68 53 43 42 41 37 35 48 71 82 94 107 114 102 85 75 66 53 44 38 28 26 28 34 38 27 23 28 38 39 35 42 34 8 12 31 39
90 100 103 102 104 110 112 115 121 128 131 131 131 129 127 125 120 116 113 109 110 111 110 109 109 108 108 109 103 101 104 102 102 103 99 96 91 91 88 85 81 76 77 75 72 71 66 66 67 62 48 41 40 35 34 42 42 32 28 83 114 115 92 73 67 57 47 40 31 29 26 29 36 28 17 20 31 35 27 35 35 6 10 31 36
93 99 103 108 109 108 109 113 119 120 124 129 129 128 129 128 121 116 113 109 105 105 107 107 108 107 104 105 101 97 100 100 102 103 101 97 91 89 86 84 81 76 76 73 72 69 65 62 60 63 58 45 43 37 36 39 32 24 2 8 64 106 100 45 44 49 50 40 31 30 21 22 33 25 12 13 21 30 22 26 36 6 7 26 29
108 101 101 108 111 112 112 114 116 114 116 119 121 121 123 123 118 113 109 106 102 103 105 103 104 104 101 101 97 94 97 99 101 101 102 99 93 90 86 84 82 78 75 70 68 66 63 62 56 59 58 48 46 39 37 40 39 41 33 307 330 5 81 356 350 7 43 39 31 28 14 14 25 19 10 9 12 21 17 17 28 9 5 20 20
128 116 106 104 108 114 118 120 120 118 117 116 116 118 118 117 114 110 107 104 100 99 99 96 96 98 96 95 91 90 95 97 98 98 99 97 93 91 87 84 83 80 78 71 68 66 65 65 58 56 58 54 52 46 43 42 44 47 41 40 15 20 104 341 336 324 12 33 36 23 8 9 18 15 8 6 3 12 13 7 15 10 6 16 13
145 140 132 123 115 114 119 126 126 124 122 120 120 120 120 120 117 113 110 106 98 92 92 93 93 93 93 94 90 88 92 93 95 94 94 94 92 92 87 85 83 79 79 75 71 68 65 67 62 58 60 63 63 54 48 42 48 54 49 55 58 48 359 344 351 303 332 7 26 12 4 3 10 8 1 359 356 4 8 359 7 9 2 11 11
151 149 148 149 143 132 127 127 130 130 129 127 126 124 120 124 125 120 112 104 97 94 97 98 98 97 95 96 93 88 87 88 90 90 91 91 91 91 88 86 83 79 78 74 72 69 65 68 69 65 62 65 66 58 48 42 47 52 50 53 52 48 37 13 32 331 323 305 334 351 358 357 2 360 355 354 349 356 0 354 4 7 355 7 9
153 151 147 149 151 151 146 138 132 133 136 136 136 135 132 131 131 127 119 110 105 103 104 102 101 101 98 94 90 87 86 84 84 87 88 88 88 90 88 86 84 80 78 73 70 70 69 70 73 74 68 62 63 63 56 47 43 42 42 45 43 43 43 36 36 16 349 292 323 339 344 347 353 351 352 350 344 350 352 349 0 358 349 3 3
150 148 145 145 146 148 151 147 141 137 138 139 137 138 139 137 133 129 123 119 117 115 113 108 104 103 98 94 89 86 87 84 80 82 85 85 85 88 90 87 84 81 81 79 73 71 70 68 68 71 71 63 59 64 63 54 47 42 39 37 35 35 33 31 26 13 357 313 322 334 334 338 343 343 346 346 341 346 345 345 352 344 345 357 354
149 147 144 146 144 143 145 146 144 143 143 143 139 136 138 138 133 129 124 122 123 122 118 113 109 105 98 94 93 91 90 87 83 79 80 83 84 86 89 88 86 85 87 86 78 71 69 69 66 67 72 68 60 62 65 60 57 51 44 38 33 28 24 22 15 7 358 335 324 322 327 334 335 334 338 340 340 342 343 345 344 336 345 351 343
148 149 146 147 146 144 143 140 141 143 144 146 144 141 142 141 136 132 127 125 126 124 118 113 112 110 104 101 102 100 97 96 94 87 81 83 86 87 88 89 89 89 87 87 81 71 68 72 71 69 75 73 62 59 64 62 61 56 48 42 36 29 26 23 11 1 356 342 328 319 324 328 326 324 329 335 338 338 339 344 341 339 346 344 334